Home   Weather   Witzenhausen   Past weeks

Flag for Germany Past Weather in Witzenhausen, Hesse, Germany — Yesterday and Last 2 Weeks

45 °F


Feels Like: 45 °F
Forecast: 38 / 55 °F
Wind: 1 mph from North

Location: Kassel / Calden

Current Time: Oct 26, 2016 at 9:39:48 AM

Latest Report: Oct 26, 2016 at 8:50 AM

Visibility: 0 mi

Pressure: 30.36 "Hg

Humidity: 100%

Dew Point: 45 °F

Location of WitzenhausenLocation

Past Weather in Witzenhausen — Graph


Witzenhausen Temperature Yesterday

Maximum temperature yesterday: 50 °F (at 11:50 AM)
Minimum temperature yesterday: 46 °F (at 7:20 AM)
Average temperature yesterday: 48 °F

High & Low Weather Summary for the Past Weeks

High63 °F (Oct 16, 3:50 PM)100% (Oct 11, 7:20 AM)30.33 "Hg (Oct 11, 7:20 AM)
Low37 °F (Oct 11, 7:20 AM)64% (Oct 16, 3:50 PM)29.77 "Hg (Oct 14, 7:20 PM)
Average47 °F92%30.01 "Hg
* Reported Oct 11 7:20 AM — Oct 26 7:50 AM, Witzenhausen, Weather by CustomWeather, © 2016

Note: Actual official high and low records may vary slightly from our data, if they occured in-between our weather recording intervals... More about our weather records


Witzenhausen Weather History for the Previous 24 Hours

Scroll right to see more
Time TempWeatherWind HumidityBarometerVisibility
7:50 AM
Wed, Oct 26
45 °FFog.1 mph100%30.33 "Hg1 mi
7:20 AM45 °FFog.1 mph100%30.33 "Hg1 mi
9:20 PM
Tue, Oct 25
46 °FPartly cloudy.5 mph100%30.30 "Hg4 mi
8:50 PM46 °FDrizzle. Fog.6 mph100%30.27 "Hg2 mi
8:20 PM46 °FLow clouds.3 mph100%30.27 "Hg4 mi
7:50 PM46 °FLow clouds.6 mph100%30.27 "Hg6 mi
7:20 PM46 °FPassing clouds.7 mph100%30.27 "Hg6 mi
6:50 PM46 °FLow clouds.8 mph100%30.27 "Hg4 mi
6:20 PM46 °FLow clouds.9 mph100%30.24 "Hg6 mi
5:50 PM46 °FPartly sunny.8 mph100%30.24 "Hg6 mi
5:20 PM48 °FPartly sunny.9 mph100%30.24 "Hg6 mi
4:50 PM48 °FPartly sunny.9 mph100%30.21 "Hg6 mi
4:20 PM48 °FPartly sunny.6 mph100%30.21 "Hg6 mi
3:50 PM48 °FBroken clouds.8 mph100%30.21 "Hg5 mi
3:20 PM48 °FMostly cloudy.8 mph100%30.18 "Hg5 mi
2:50 PM50 °FFog.12 mph100%30.18 "Hg3 mi
2:20 PM50 °FDrizzle. Fog.12 mph100%30.18 "Hg2 mi
1:50 PM50 °FDrizzle. Fog.9 mph100%30.18 "Hg2 mi
1:20 PM50 °FBroken clouds.5 mph100%30.15 "Hg4 mi
12:50 PM50 °FBroken clouds.2 mph100%30.15 "Hg4 mi
12:20 PM50 °FPartly sunny.2 mph100%30.15 "Hg4 mi
11:50 AM50 °FFog.2 mph100%30.15 "Hg3 mi
11:20 AM48 °FDrizzle. Fog.2 mph100%30.15 "Hg3 mi
10:50 AM48 °FFog.1 mph100%30.15 "Hg4 mi
10:20 AM48 °FDrizzle. Partly sunny.1 mph100%30.12 "Hg4 mi
9:50 AM48 °FDrizzle. Low clouds.1 mph100%30.12 "Hg1 mi
9:20 AM48 °FDrizzle. Fog.1 mph100%30.12 "Hg1 mi
Weather by CustomWeather, © 2016

See weather overviewHow to use our weather pages